KMY030 SKCL-SKBQ

Flight info

Callsign KMY030
Flight time N/A
Altitude 15000
Route ULQ1B ULQ DCT RNG UW26 MRN UW3 VOVLU VOVLU4A
Aircraft PA34/L-SDFGRY/S

Departure

Time 2026-04-24 03:26
Airport Alfonso Bonilla Aragon International Airport (SKCL)

Arrival

Time N/A
Airport Ernesto Cortissoz International Airport (SKBQ)
Time Latitude Longitude Altitude Speed Heading
2026-04-24 03:22 3.53023 -76.38393 2428 ft 0 kts
2026-04-24 03:24 3.53033 -76.38392 2428 ft 10 kts
2026-04-24 03:24 3.53274 -76.38351 2428 ft 63 kts
2026-04-24 03:25 3.53858 -76.38254 2494 ft 100 kts
2026-04-24 03:25 3.54576 -76.38136 2782 ft 110 kts
2026-04-24 03:25 3.55360 -76.38006 3070 ft 120 kts
2026-04-24 03:25 3.56199 -76.37867 3389 ft 127 kts
2026-04-24 03:26 3.57132 -76.37712 3649 ft 137 kts
2026-04-24 03:26 3.58094 -76.37552 3922 ft 144 kts
2026-04-24 03:26 3.59070 -76.37391 4173 ft 143 kts
2026-04-24 03:26 3.60041 -76.37230 4413 ft 140 kts
2026-04-24 03:27 3.61010 -76.37069 4657 ft 138 kts
2026-04-24 03:27 3.61950 -76.36913 4899 ft 136 kts
2026-04-24 03:27 3.62863 -76.36757 5138 ft 135 kts 11°
2026-04-24 03:27 3.63774 -76.36554 5383 ft 134 kts 13°
2026-04-24 03:28 3.64703 -76.36353 5635 ft 133 kts 12°
2026-04-24 03:28 3.65610 -76.36175 5881 ft 133 kts 11°
2026-04-24 03:28 3.66512 -76.36008 6127 ft 132 kts 10°
2026-04-24 03:28 3.67423 -76.35844 6379 ft 132 kts
2026-04-24 03:29 3.68314 -76.35681 6617 ft 132 kts
2026-04-24 03:29 3.69225 -76.35517 6783 ft 139 kts
2026-04-24 03:29 3.70180 -76.35287 6972 ft 144 kts
2026-04-24 03:29 3.71189 -76.35005 7164 ft 148 kts
2026-04-24 03:30 3.72180 -76.34716 7347 ft 151 kts
2026-04-24 03:30 3.73209 -76.34412 7531 ft 154 kts
2026-04-24 03:30 3.74237 -76.34107 7710 ft 156 kts
2026-04-24 03:30 3.75289 -76.33794 7891 ft 157 kts
2026-04-24 03:31 3.76333 -76.33484 8067 ft 158 kts
2026-04-24 03:31 3.77392 -76.33170 8244 ft 159 kts
2026-04-24 03:31 3.78460 -76.32845 8421 ft 161 kts 10°
2026-04-24 03:31 3.79522 -76.32498 8597 ft 162 kts 11°
2026-04-24 03:32 3.80592 -76.32139 8773 ft 162 kts 11°
2026-04-24 03:32 3.81655 -76.31778 8948 ft 163 kts 12°
2026-04-24 03:32 3.82376 -76.31531 9066 ft 163 kts 12°
2026-04-24 03:32 3.83446 -76.31165 9240 ft 164 kts 12°
2026-04-24 03:33 3.84886 -76.30672 9475 ft 164 kts 12°
2026-04-24 03:33 3.85604 -76.30426 9591 ft 164 kts 12°
2026-04-24 03:33 3.87058 -76.29928 9827 ft 166 kts 12°
2026-04-24 03:33 3.87787 -76.29678 9944 ft 166 kts 12°
2026-04-24 03:34 3.88880 -76.29303 10119 ft 166 kts 12°
2026-04-24 03:34 3.89979 -76.28926 10294 ft 166 kts 12°
2026-04-24 03:34 3.91077 -76.28549 10469 ft 167 kts 12°
2026-04-24 03:34 3.92180 -76.28171 10645 ft 167 kts 12°
2026-04-24 03:35 3.93280 -76.27794 10820 ft 167 kts 12°
2026-04-24 03:35 3.94370 -76.27420 10993 ft 168 kts 12°
2026-04-24 03:35 3.95491 -76.27035 11171 ft 168 kts 12°
2026-04-24 03:35 3.96589 -76.26659 11345 ft 168 kts 12°
2026-04-24 03:36 3.97706 -76.26276 11521 ft 169 kts 12°
2026-04-24 03:36 3.98813 -76.25896 11696 ft 169 kts 12°
2026-04-24 03:36 3.99934 -76.25512 11872 ft 169 kts 12°
2026-04-24 03:36 4.01035 -76.25134 12045 ft 171 kts 12°
2026-04-24 03:37 4.02172 -76.24745 12226 ft 173 kts 12°
2026-04-24 03:37 4.03315 -76.24354 12405 ft 175 kts 12°
2026-04-24 03:37 4.04471 -76.23958 12584 ft 176 kts 12°
2026-04-24 03:37 4.05629 -76.23561 12760 ft 177 kts 12°
2026-04-24 03:38 4.06797 -76.23160 12937 ft 178 kts 12°
2026-04-24 03:38 4.07977 -76.22754 13114 ft 179 kts 12°
2026-04-24 03:38 4.09154 -76.22306 13291 ft 181 kts 15°
2026-04-24 03:38 4.10323 -76.21831 13467 ft 182 kts 15°
2026-04-24 03:39 4.11485 -76.21346 13641 ft 183 kts 16°
2026-04-24 03:39 4.12679 -76.20844 13820 ft 184 kts 16°
2026-04-24 03:39 4.13861 -76.20344 13996 ft 184 kts 16°
2026-04-24 03:39 4.15040 -76.19844 14171 ft 185 kts 16°
2026-04-24 03:40 4.16212 -76.19347 14345 ft 186 kts 16°
2026-04-24 03:40 4.17410 -76.18838 14522 ft 186 kts 16°
2026-04-24 03:40 4.18604 -76.18330 14697 ft 187 kts 16°
2026-04-24 03:40 4.19801 -76.17821 14858 ft 188 kts 16°
2026-04-24 03:41 4.21019 -76.17304 14971 ft 192 kts 16°
2026-04-24 03:41 4.22265 -76.16776 15006 ft 198 kts 16°
2026-04-24 03:41 4.23562 -76.16226 15009 ft 204 kts 17°
2026-04-24 03:41 4.24863 -76.15673 15007 ft 208 kts 17°
2026-04-24 03:42 4.26221 -76.15094 15005 ft 210 kts 17°
2026-04-24 03:42 4.27572 -76.14517 15002 ft 210 kts 17°
2026-04-24 03:42 4.28893 -76.13952 15000 ft 210 kts 17°
2026-04-24 03:42 4.30241 -76.13377 15000 ft 210 kts 17°
2026-04-24 03:43 4.31587 -76.12802 15000 ft 210 kts 17°
2026-04-24 03:43 4.32919 -76.12234 15000 ft 210 kts 17°
2026-04-24 03:43 4.34277 -76.11655 15000 ft 209 kts 17°
2026-04-24 03:43 4.35607 -76.11088 15000 ft 209 kts 17°
2026-04-24 03:44 4.36953 -76.10515 15000 ft 209 kts 17°
2026-04-24 03:44 4.38286 -76.09947 15000 ft 209 kts 17°
2026-04-24 03:44 4.39629 -76.09375 15000 ft 209 kts 17°
2026-04-24 03:44 4.40967 -76.08805 15000 ft 209 kts 17°
2026-04-24 03:45 4.42304 -76.08235 14998 ft 207 kts 17°
2026-04-24 03:45 4.43623 -76.07672 14997 ft 205 kts 17°
2026-04-24 03:45 4.44945 -76.07109 14998 ft 204 kts 17°
2026-04-24 03:45 4.46253 -76.06552 14999 ft 203 kts 17°
2026-04-24 03:46 4.47535 -76.06007 14999 ft 203 kts 17°
2026-04-24 03:46 4.48831 -76.05452 15027 ft 205 kts 17°
2026-04-24 03:46 4.50173 -76.04883 15020 ft 214 kts 17°
2026-04-24 03:46 4.51545 -76.04309 14981 ft 212 kts 17°
2026-04-24 03:47 4.52910 -76.03727 14991 ft 208 kts 17°
2026-04-24 03:47 4.54211 -76.03170 14995 ft 206 kts 17°
2026-04-24 03:47 4.55544 -76.02600 15000 ft 208 kts 17°
2026-04-24 03:47 4.56873 -76.02034 15002 ft 210 kts 17°
2026-04-24 03:48 4.58229 -76.01456 15002 ft 211 kts 17°
2026-04-24 03:48 4.59574 -76.00882 15001 ft 211 kts 17°
2026-04-24 03:48 4.60938 -76.00300 15001 ft 211 kts 17°
2026-04-24 03:48 4.62277 -75.99729 15000 ft 211 kts 17°
2026-04-24 03:49 4.63639 -75.99148 15000 ft 211 kts 17°
2026-04-24 03:49 4.64982 -75.98575 15000 ft 211 kts 17°
2026-04-24 03:49 4.66344 -75.97994 15000 ft 211 kts 17°
2026-04-24 03:49 4.67706 -75.97413 15000 ft 211 kts 17°
2026-04-24 03:50 4.69061 -75.96836 15000 ft 211 kts 17°
2026-04-24 03:50 4.70393 -75.96268 15000 ft 211 kts 17°
2026-04-24 03:50 4.71746 -75.95691 15000 ft 211 kts 17°
2026-04-24 03:50 4.73098 -75.95115 15000 ft 211 kts 17°
2026-04-24 03:51 4.74449 -75.94539 15000 ft 211 kts 17°
2026-04-24 03:51 4.75805 -75.93961 15000 ft 211 kts 17°
2026-04-24 03:51 4.77156 -75.93385 15000 ft 211 kts 17°
2026-04-24 03:51 4.78504 -75.92810 15000 ft 211 kts 17°
2026-04-24 03:52 4.79856 -75.92234 15000 ft 211 kts 17°
2026-04-24 03:52 4.81210 -75.91656 15000 ft 211 kts 17°
2026-04-24 03:52 4.82558 -75.91082 15000 ft 211 kts 17°
2026-04-24 03:52 4.83913 -75.90504 15000 ft 211 kts 17°
2026-04-24 03:53 4.85264 -75.89928 15000 ft 211 kts 17°
2026-04-24 03:53 4.86628 -75.89346 15000 ft 211 kts 17°
2026-04-24 03:53 4.87971 -75.88773 15000 ft 211 kts 17°
2026-04-24 03:53 4.89316 -75.88199 15000 ft 211 kts 17°
2026-04-24 03:54 4.90684 -75.87616 15000 ft 211 kts 17°
2026-04-24 03:54 4.92015 -75.87048 15000 ft 211 kts 17°
2026-04-24 03:54 4.93391 -75.86461 15000 ft 211 kts 17°
2026-04-24 03:54 4.94724 -75.85893 15000 ft 211 kts 17°
2026-04-24 03:55 4.96070 -75.85319 15000 ft 211 kts 17°
2026-04-24 03:55 4.97426 -75.84740 15000 ft 211 kts 17°
2026-04-24 03:55 4.98778 -75.84163 15000 ft 211 kts 17°
2026-04-24 03:55 5.00131 -75.83586 15000 ft 211 kts 17°
2026-04-24 03:56 5.01497 -75.83004 15000 ft 211 kts 17°
2026-04-24 03:56 5.02829 -75.82435 15000 ft 211 kts 17°
2026-04-24 03:56 5.04200 -75.81850 15000 ft 211 kts 17°
2026-04-24 03:56 5.05535 -75.81280 15000 ft 211 kts 17°
2026-04-24 03:57 5.06881 -75.80706 15000 ft 211 kts 17°
2026-04-24 03:57 5.08242 -75.80125 15000 ft 211 kts 17°
2026-04-24 03:57 5.09593 -75.79548 15000 ft 211 kts 17°
2026-04-24 03:57 5.10946 -75.78971 15000 ft 211 kts 17°
2026-04-24 03:58 5.12294 -75.78396 15000 ft 211 kts 17°
2026-04-24 03:58 5.13651 -75.77817 15000 ft 211 kts 17°
2026-04-24 03:58 5.15000 -75.77241 15000 ft 211 kts 17°
2026-04-24 03:58 5.16352 -75.76664 15000 ft 211 kts 17°
2026-04-24 03:59 5.17699 -75.76089 15000 ft 211 kts 17°
2026-04-24 03:59 5.19059 -75.75508 15000 ft 211 kts 17°
2026-04-24 03:59 5.20396 -75.74937 15000 ft 211 kts 17°
2026-04-24 03:59 5.21767 -75.74352 15000 ft 211 kts 17°
2026-04-24 04:00 5.23098 -75.73784 15000 ft 211 kts 17°
2026-04-24 04:00 5.24450 -75.73207 15000 ft 211 kts 17°
2026-04-24 04:00 5.25801 -75.72630 15000 ft 211 kts 17°
2026-04-24 04:00 5.27161 -75.72049 15000 ft 211 kts 17°
2026-04-24 04:01 5.28518 -75.71470 15000 ft 211 kts 17°
2026-04-24 04:01 5.29871 -75.70892 15000 ft 211 kts 17°
2026-04-24 04:01 5.31224 -75.70314 15000 ft 211 kts 17°
2026-04-24 04:01 5.32579 -75.69736 15000 ft 211 kts 17°
2026-04-24 04:02 5.33931 -75.69158 15000 ft 211 kts 17°
2026-04-24 04:02 5.35273 -75.68585 15000 ft 211 kts 17°
2026-04-24 04:02 5.36639 -75.68002 15000 ft 211 kts 17°
2026-04-24 04:02 5.37993 -75.67423 15000 ft 211 kts 17°
2026-04-24 04:03 5.39348 -75.66844 15000 ft 211 kts 17°
2026-04-24 04:03 5.40700 -75.66267 15000 ft 211 kts 17°
2026-04-24 04:03 5.42035 -75.65697 15000 ft 211 kts 17°
2026-04-24 04:03 5.43378 -75.65123 15000 ft 211 kts 17°
2026-04-24 04:04 5.44734 -75.64544 15000 ft 211 kts 17°
2026-04-24 04:04 5.46093 -75.63963 15000 ft 211 kts 17°
2026-04-24 04:04 5.47441 -75.63387 15000 ft 211 kts 17°
2026-04-24 04:04 5.48799 -75.62807 15000 ft 211 kts 17°
2026-04-24 04:05 5.50122 -75.62241 15000 ft 211 kts 17°
2026-04-24 04:05 5.51500 -75.61653 15000 ft 211 kts 17°
2026-04-24 04:05 5.52842 -75.61079 15000 ft 211 kts 17°
2026-04-24 04:05 5.54195 -75.60501 15000 ft 211 kts 17°
2026-04-24 04:06 5.55558 -75.59919 15000 ft 211 kts 17°
2026-04-24 04:06 5.56906 -75.59343 15000 ft 211 kts 17°
2026-04-24 04:06 5.58266 -75.58762 15000 ft 211 kts 17°
2026-04-24 04:06 5.59621 -75.58183 15000 ft 211 kts 17°
2026-04-24 04:07 5.60957 -75.57612 15000 ft 211 kts 17°
2026-04-24 04:07 5.62304 -75.57036 15000 ft 211 kts 17°
2026-04-24 04:07 5.63682 -75.56447 15000 ft 211 kts 17°
2026-04-24 04:07 5.65005 -75.55882 15000 ft 211 kts 17°
2026-04-24 04:08 5.66366 -75.55300 15000 ft 211 kts 17°
2026-04-24 04:08 5.67716 -75.54723 15000 ft 211 kts 17°
2026-04-24 04:08 5.69074 -75.54143 15000 ft 211 kts 17°
2026-04-24 04:08 5.70427 -75.53565 15000 ft 211 kts 17°
2026-04-24 04:09 5.71770 -75.52991 15000 ft 211 kts 17°
2026-04-24 04:09 5.73130 -75.52410 15000 ft 211 kts 17°
2026-04-24 04:09 5.74496 -75.51826 15000 ft 211 kts 17°
2026-04-24 04:09 5.75830 -75.51256 15000 ft 211 kts 17°
2026-04-24 04:10 5.77200 -75.50670 15000 ft 211 kts 17°
2026-04-24 04:10 5.78534 -75.50101 15000 ft 211 kts 17°
2026-04-24 04:10 5.79891 -75.49521 15000 ft 211 kts 17°
2026-04-24 04:11 5.82600 -75.48364 15000 ft 211 kts 17°
2026-04-24 04:11 5.83953 -75.47786 15000 ft 211 kts 17°
2026-04-24 04:11 5.85305 -75.47209 15000 ft 211 kts 17°
2026-04-24 04:11 5.86646 -75.46637 15000 ft 211 kts 17°
2026-04-24 04:12 5.88019 -75.46051 15000 ft 211 kts 17°
2026-04-24 04:12 5.89356 -75.45482 15000 ft 211 kts 17°
2026-04-24 04:12 5.90705 -75.44907 15000 ft 211 kts 17°
2026-04-24 04:12 5.92080 -75.44322 15000 ft 211 kts 17°
2026-04-24 04:13 5.93414 -75.43756 15000 ft 211 kts 17°
2026-04-24 04:13 5.94766 -75.43184 15000 ft 211 kts 17°
2026-04-24 04:13 5.96131 -75.42609 15000 ft 211 kts 17°
2026-04-24 04:13 5.97471 -75.42012 15000 ft 212 kts 19°
2026-04-24 04:14 5.98808 -75.41384 15000 ft 212 kts 19°
2026-04-24 04:14 6.00143 -75.40743 15000 ft 212 kts 20°
2026-04-24 04:14 6.01473 -75.40102 15000 ft 212 kts 20°
2026-04-24 04:14 6.02817 -75.39453 15000 ft 212 kts 20°
2026-04-24 04:15 6.04141 -75.38814 15000 ft 212 kts 20°
2026-04-24 04:15 6.05460 -75.38178 15000 ft 212 kts 20°
2026-04-24 04:15 6.06798 -75.37534 15000 ft 212 kts 20°
2026-04-24 04:15 6.08127 -75.36895 15000 ft 212 kts 20°
2026-04-24 04:16 6.09462 -75.36253 15000 ft 212 kts 20°
2026-04-24 04:16 6.10356 -75.35824 15000 ft 212 kts 19°
2026-04-24 04:16 6.11679 -75.35189 15000 ft 212 kts 19°
2026-04-24 04:16 6.13447 -75.34343 15002 ft 211 kts 20°
2026-04-24 04:17 6.14775 -75.33710 15001 ft 209 kts 20°
2026-04-24 04:17 6.16083 -75.33101 15005 ft 206 kts 18°
2026-04-24 04:17 6.17426 -75.32648 15001 ft 202 kts 11°
2026-04-24 04:17 6.18332 -75.32415 15000 ft 201 kts
2026-04-24 04:18 6.19713 -75.32116 14999 ft 199 kts
2026-04-24 04:18 6.21051 -75.31861 14999 ft 198 kts
2026-04-24 04:18 6.22403 -75.31623 14999 ft 197 kts
2026-04-24 04:18 6.23761 -75.31396 14999 ft 197 kts
2026-04-24 04:19 6.25124 -75.31176 15000 ft 197 kts
2026-04-24 04:19 6.26476 -75.30962 15000 ft 197 kts
2026-04-24 04:19 6.27807 -75.30754 15000 ft 196 kts
2026-04-24 04:19 6.29159 -75.30545 15000 ft 196 kts
2026-04-24 04:20 6.30509 -75.30337 15000 ft 196 kts
2026-04-24 04:20 6.31863 -75.30130 15000 ft 196 kts
2026-04-24 04:20 6.33217 -75.29922 15000 ft 196 kts
2026-04-24 04:20 6.34563 -75.29716 15000 ft 196 kts
2026-04-24 04:21 6.35914 -75.29510 15000 ft 196 kts
2026-04-24 04:21 6.37259 -75.29305 15000 ft 196 kts
2026-04-24 04:21 6.38606 -75.29099 15000 ft 196 kts
2026-04-24 04:21 6.39957 -75.28893 15000 ft 196 kts
2026-04-24 04:22 6.41283 -75.28690 15000 ft 196 kts
2026-04-24 04:22 6.42640 -75.28483 15000 ft 196 kts
2026-04-24 04:22 6.43989 -75.28277 15000 ft 196 kts
2026-04-24 04:22 6.45340 -75.28071 15000 ft 196 kts
2026-04-24 04:23 6.46681 -75.27866 15000 ft 196 kts
2026-04-24 04:23 6.48037 -75.27659 15000 ft 196 kts
2026-04-24 04:23 6.49377 -75.27455 15000 ft 196 kts
2026-04-24 04:23 6.50731 -75.27248 15000 ft 196 kts
2026-04-24 04:24 6.52065 -75.27045 15000 ft 196 kts
2026-04-24 04:24 6.53419 -75.26838 15000 ft 196 kts
2026-04-24 04:24 6.54768 -75.26632 15000 ft 195 kts
2026-04-24 04:24 6.56116 -75.26426 15000 ft 195 kts
2026-04-24 04:25 6.57463 -75.26221 15000 ft 195 kts
2026-04-24 04:25 6.58796 -75.26017 15000 ft 195 kts
2026-04-24 04:25 6.60137 -75.25813 15000 ft 195 kts
2026-04-24 04:25 6.61479 -75.25608 15000 ft 195 kts
2026-04-24 04:26 6.62826 -75.25402 15000 ft 195 kts
2026-04-24 04:26 6.64164 -75.25198 15000 ft 195 kts
2026-04-24 04:26 6.65496 -75.24995 15000 ft 195 kts
2026-04-24 04:26 6.66869 -75.24785 15000 ft 195 kts
2026-04-24 04:27 6.68194 -75.24583 15000 ft 195 kts
2026-04-24 04:27 6.69532 -75.24379 15000 ft 195 kts
2026-04-24 04:27 6.70883 -75.24173 15000 ft 195 kts
2026-04-24 04:27 6.72216 -75.23969 15000 ft 195 kts
2026-04-24 04:28 6.73548 -75.23766 15000 ft 195 kts
2026-04-24 04:28 6.74887 -75.23562 15000 ft 195 kts
2026-04-24 04:28 6.76229 -75.23357 15000 ft 195 kts
2026-04-24 04:28 6.77585 -75.23151 15000 ft 195 kts
2026-04-24 04:29 6.78925 -75.22947 15000 ft 195 kts
2026-04-24 04:29 6.80248 -75.22745 15000 ft 195 kts
2026-04-24 04:29 6.81588 -75.22541 15000 ft 194 kts
2026-04-24 04:29 6.82930 -75.22336 15000 ft 194 kts
2026-04-24 04:30 6.84259 -75.22134 15000 ft 194 kts
2026-04-24 04:30 6.85603 -75.21930 15000 ft 194 kts
2026-04-24 04:30 6.86936 -75.21727 15000 ft 194 kts
2026-04-24 04:30 6.88281 -75.21523 15000 ft 194 kts
2026-04-24 04:31 6.89603 -75.21322 15000 ft 194 kts
2026-04-24 04:31 6.90937 -75.21120 15000 ft 194 kts
2026-04-24 04:31 6.92275 -75.20917 15000 ft 194 kts
2026-04-24 04:31 6.93608 -75.20716 15000 ft 194 kts
2026-04-24 04:32 6.94942 -75.20515 15000 ft 194 kts
2026-04-24 04:32 6.96284 -75.20314 15000 ft 194 kts
2026-04-24 04:32 6.97610 -75.20116 15000 ft 194 kts
2026-04-24 04:32 6.98944 -75.19919 15000 ft 194 kts
2026-04-24 04:33 7.00278 -75.19725 15000 ft 194 kts
2026-04-24 04:33 7.01482 -75.19540 15000 ft 194 kts
2026-04-24 04:33 7.02803 -75.19326 15000 ft 194 kts
2026-04-24 04:33 7.03951 -75.19141 15000 ft 193 kts
2026-04-24 04:34 7.05161 -75.18948 15000 ft 193 kts
2026-04-24 04:34 7.06404 -75.18753 15000 ft 193 kts
2026-04-24 04:34 7.07730 -75.18548 15000 ft 193 kts
2026-04-24 04:34 7.09059 -75.18343 15000 ft 193 kts
2026-04-24 04:35 7.10395 -75.18139 15000 ft 193 kts
2026-04-24 04:35 7.11714 -75.17938 15000 ft 193 kts
2026-04-24 04:35 7.13038 -75.17737 14999 ft 193 kts
2026-04-24 04:35 7.14386 -75.17532 15000 ft 193 kts
2026-04-24 04:36 7.15723 -75.17329 15000 ft 194 kts
2026-04-24 04:36 7.17057 -75.17127 15000 ft 194 kts
2026-04-24 04:36 7.18373 -75.16927 15000 ft 194 kts
2026-04-24 04:36 7.19719 -75.16723 15000 ft 194 kts
2026-04-24 04:37 7.21052 -75.16521 15003 ft 194 kts
2026-04-24 04:37 7.22368 -75.16322 15001 ft 193 kts
2026-04-24 04:37 7.23706 -75.16120 15000 ft 193 kts
2026-04-24 04:37 7.25033 -75.15919 14999 ft 192 kts
2026-04-24 04:38 7.26363 -75.15717 15000 ft 192 kts
2026-04-24 04:38 7.27695 -75.15516 15000 ft 192 kts
2026-04-24 04:38 7.28999 -75.15319 15000 ft 192 kts
2026-04-24 04:38 7.30316 -75.15119 14999 ft 192 kts
2026-04-24 04:39 7.31639 -75.14919 15000 ft 192 kts
2026-04-24 04:39 7.32967 -75.14718 15000 ft 192 kts
2026-04-24 04:39 7.34289 -75.14517 15000 ft 192 kts
2026-04-24 04:39 7.35586 -75.14321 15000 ft 192 kts
2026-04-24 04:40 7.36918 -75.14119 15000 ft 193 kts
2026-04-24 04:40 7.38261 -75.13916 15001 ft 195 kts
2026-04-24 04:40 7.39595 -75.13715 15005 ft 196 kts
2026-04-24 04:40 7.40948 -75.13509 15003 ft 197 kts
2026-04-24 04:41 7.42321 -75.13300 15001 ft 198 kts
2026-04-24 04:41 7.43692 -75.13091 15001 ft 198 kts
2026-04-24 04:41 7.45033 -75.12887 15000 ft 198 kts
2026-04-24 04:41 7.46409 -75.12678 15000 ft 198 kts
2026-04-24 04:42 7.47772 -75.12471 15000 ft 198 kts
2026-04-24 04:42 7.49131 -75.12265 15000 ft 199 kts
2026-04-24 04:42 7.50500 -75.12058 15000 ft 199 kts
2026-04-24 04:42 7.51879 -75.11849 15000 ft 199 kts
2026-04-24 04:43 7.53241 -75.11643 14993 ft 201 kts
2026-04-24 04:43 7.54635 -75.11431 14996 ft 204 kts
2026-04-24 04:43 7.56054 -75.11218 14993 ft 209 kts
2026-04-24 04:43 7.57524 -75.11000 14999 ft 216 kts
2026-04-24 04:44 7.59025 -75.10772 15006 ft 220 kts
2026-04-24 04:44 7.60552 -75.10538 15005 ft 224 kts
2026-04-24 04:44 7.62112 -75.10300 15004 ft 226 kts
2026-04-24 04:44 7.63647 -75.10067 15003 ft 227 kts
2026-04-24 04:45 7.65211 -75.09832 15001 ft 227 kts
2026-04-24 04:45 7.66784 -75.09599 14999 ft 226 kts
2026-04-24 04:45 7.68318 -75.09377 14999 ft 225 kts
2026-04-24 04:45 7.69889 -75.09148 14999 ft 224 kts
2026-04-24 04:46 7.71400 -75.08904 15000 ft 224 kts
2026-04-24 04:46 7.72934 -75.08650 15000 ft 223 kts
2026-04-24 04:46 7.74467 -75.08396 15004 ft 221 kts
2026-04-24 04:46 7.75973 -75.08152 14999 ft 220 kts
2026-04-24 04:47 7.77477 -75.07912 14999 ft 219 kts
2026-04-24 04:47 7.78999 -75.07674 14999 ft 218 kts
2026-04-24 04:47 7.80484 -75.07442 14999 ft 218 kts
2026-04-24 04:47 7.81981 -75.07211 15000 ft 217 kts
2026-04-24 04:48 7.83475 -75.06980 15000 ft 217 kts
2026-04-24 04:48 7.84975 -75.06748 15000 ft 217 kts
2026-04-24 04:48 7.86464 -75.06519 15000 ft 217 kts
2026-04-24 04:48 7.87950 -75.06290 15000 ft 217 kts
2026-04-24 04:49 7.89453 -75.06058 15000 ft 217 kts
2026-04-24 04:49 7.90926 -75.05831 15000 ft 217 kts
2026-04-24 04:49 7.92410 -75.05602 15001 ft 216 kts
2026-04-24 04:49 7.93915 -75.05370 15000 ft 216 kts
2026-04-24 04:50 7.95392 -75.05142 15000 ft 216 kts
2026-04-24 04:50 7.96872 -75.04915 15000 ft 215 kts
2026-04-24 04:50 7.98370 -75.04684 15000 ft 215 kts
2026-04-24 04:50 7.99840 -75.04458 15000 ft 215 kts
2026-04-24 04:51 8.01322 -75.04229 15000 ft 215 kts
2026-04-24 04:51 8.02806 -75.04000 15000 ft 215 kts
2026-04-24 04:51 8.04263 -75.03776 15000 ft 214 kts
2026-04-24 04:51 8.05739 -75.03548 15000 ft 214 kts
2026-04-24 04:52 8.07213 -75.03321 15000 ft 214 kts
2026-04-24 04:52 8.08680 -75.03095 15000 ft 214 kts
2026-04-24 04:52 8.10149 -75.02869 15000 ft 213 kts
2026-04-24 04:52 8.11609 -75.02644 15000 ft 213 kts
2026-04-24 04:53 8.13084 -75.02416 15000 ft 213 kts
2026-04-24 04:53 8.14540 -75.02192 15000 ft 213 kts
2026-04-24 04:53 8.16021 -75.01964 15000 ft 213 kts
2026-04-24 04:53 8.17481 -75.01739 15000 ft 213 kts
2026-04-24 04:54 8.18943 -75.01513 15001 ft 212 kts
2026-04-24 04:54 8.20407 -75.01287 15000 ft 212 kts
2026-04-24 04:54 8.21861 -75.01062 15000 ft 212 kts
2026-04-24 04:54 8.23318 -75.00838 15000 ft 211 kts
2026-04-24 04:55 8.24762 -75.00615 15000 ft 211 kts
2026-04-24 04:55 8.26216 -75.00391 15000 ft 211 kts
2026-04-24 04:55 8.27658 -75.00169 15001 ft 210 kts
2026-04-24 04:55 8.29099 -74.99947 15000 ft 210 kts
2026-04-24 04:56 8.30568 -74.99720 14999 ft 209 kts
2026-04-24 04:56 8.31984 -74.99502 15000 ft 209 kts
2026-04-24 04:56 8.33417 -74.99282 15000 ft 209 kts
2026-04-24 04:56 8.34865 -74.99059 15000 ft 209 kts
2026-04-24 04:57 8.36288 -74.98839 14999 ft 209 kts
2026-04-24 04:57 8.37734 -74.98616 15000 ft 209 kts
2026-04-24 04:57 8.39163 -74.98396 15000 ft 209 kts
2026-04-24 04:57 8.40612 -74.98172 15000 ft 209 kts
2026-04-24 04:58 8.42044 -74.97951 15000 ft 209 kts
2026-04-24 04:58 8.43486 -74.97728 15000 ft 209 kts
2026-04-24 04:58 8.44933 -74.97505 14997 ft 211 kts
2026-04-24 04:58 8.46389 -74.97280 15000 ft 212 kts
2026-04-24 04:59 8.47841 -74.97055 15000 ft 213 kts
2026-04-24 04:59 8.49306 -74.96828 15000 ft 213 kts
2026-04-24 04:59 8.50768 -74.96601 15000 ft 214 kts
2026-04-24 04:59 8.52253 -74.96370 15000 ft 215 kts
2026-04-24 05:00 8.53705 -74.96145 14999 ft 216 kts
2026-04-24 05:00 8.55208 -74.95912 15001 ft 216 kts
2026-04-24 05:00 8.56200 -74.95758 15001 ft 217 kts
2026-04-24 05:00 8.58175 -74.95450 15001 ft 217 kts
2026-04-24 05:01 8.59671 -74.95218 15000 ft 217 kts
2026-04-24 05:01 8.61179 -74.94983 15000 ft 217 kts
2026-04-24 05:01 8.62175 -74.94829 15001 ft 217 kts
2026-04-24 05:01 8.63671 -74.94596 15000 ft 217 kts
2026-04-24 05:02 8.65164 -74.94365 15000 ft 217 kts
2026-04-24 05:02 8.66666 -74.94132 15000 ft 217 kts
2026-04-24 05:02 8.68153 -74.93902 15000 ft 217 kts
2026-04-24 05:02 8.69653 -74.93670 15000 ft 217 kts
2026-04-24 05:03 8.71139 -74.93441 14999 ft 218 kts
2026-04-24 05:03 8.72654 -74.93206 15000 ft 218 kts
2026-04-24 05:03 8.74152 -74.92974 15000 ft 218 kts
2026-04-24 05:03 8.75629 -74.92746 15000 ft 218 kts
2026-04-24 05:04 8.77122 -74.92514 15000 ft 218 kts
2026-04-24 05:04 8.78631 -74.92281 15000 ft 218 kts
2026-04-24 05:04 8.80150 -74.92044 15004 ft 217 kts
2026-04-24 05:04 8.81634 -74.91814 15000 ft 215 kts
2026-04-24 05:05 8.83108 -74.91586 15000 ft 214 kts
2026-04-24 05:05 8.84563 -74.91363 14999 ft 212 kts
2026-04-24 05:05 8.86034 -74.91137 14999 ft 211 kts
2026-04-24 05:05 8.87487 -74.90914 14999 ft 211 kts
2026-04-24 05:06 8.88925 -74.90693 14999 ft 210 kts
2026-04-24 05:06 8.90389 -74.90469 14999 ft 210 kts
2026-04-24 05:06 8.91823 -74.90249 15000 ft 210 kts
2026-04-24 05:06 8.93275 -74.90025 15000 ft 210 kts
2026-04-24 05:07 8.94695 -74.89807 15000 ft 210 kts
2026-04-24 05:07 8.96141 -74.89584 15000 ft 210 kts
2026-04-24 05:07 8.97585 -74.89361 15001 ft 209 kts
2026-04-24 05:07 8.99019 -74.89140 15000 ft 209 kts
2026-04-24 05:08 9.00458 -74.88918 15000 ft 209 kts
2026-04-24 05:08 9.01895 -74.88696 15000 ft 209 kts
2026-04-24 05:08 9.03332 -74.88475 15000 ft 209 kts
2026-04-24 05:08 9.04759 -74.88255 15000 ft 209 kts
2026-04-24 05:09 9.06209 -74.88031 15000 ft 209 kts
2026-04-24 05:09 9.07639 -74.87811 15000 ft 209 kts
2026-04-24 05:09 9.09077 -74.87590 15000 ft 209 kts
2026-04-24 05:09 9.10504 -74.87370 15000 ft 209 kts
2026-04-24 05:10 9.11962 -74.87146 15000 ft 209 kts
2026-04-24 05:10 9.13394 -74.86926 15000 ft 209 kts
2026-04-24 05:10 9.14813 -74.86708 15000 ft 209 kts
2026-04-24 05:10 9.16250 -74.86488 15000 ft 209 kts
2026-04-24 05:11 9.17692 -74.86268 15000 ft 209 kts
2026-04-24 05:11 9.19129 -74.86049 15000 ft 209 kts
2026-04-24 05:11 9.20564 -74.85831 15000 ft 209 kts
2026-04-24 05:11 9.21996 -74.85615 15000 ft 209 kts
2026-04-24 05:12 9.23430 -74.85401 15000 ft 209 kts
2026-04-24 05:12 9.24860 -74.85189 15000 ft 209 kts
2026-04-24 05:12 9.26315 -74.84978 15000 ft 208 kts
2026-04-24 05:12 9.27734 -74.84806 15000 ft 207 kts 359°
2026-04-24 05:13 9.30613 -74.84650 15000 ft 206 kts 355°
2026-04-24 05:13 9.32044 -74.84625 15000 ft 205 kts 354°
2026-04-24 05:13 9.33457 -74.84617 15000 ft 205 kts 353°
2026-04-24 05:14 9.34897 -74.84620 15000 ft 205 kts 353°
2026-04-24 05:14 9.36317 -74.84629 15000 ft 205 kts 353°
2026-04-24 05:14 9.37747 -74.84642 15000 ft 205 kts 353°
2026-04-24 05:14 9.39177 -74.84656 15000 ft 205 kts 353°
2026-04-24 05:15 9.40599 -74.84673 15000 ft 205 kts 353°
2026-04-24 05:15 9.42035 -74.84690 15000 ft 205 kts 353°
2026-04-24 05:15 9.43448 -74.84709 15000 ft 205 kts 353°
2026-04-24 05:15 9.44870 -74.84730 15000 ft 205 kts 353°
2026-04-24 05:16 9.46306 -74.84754 15000 ft 205 kts 352°
2026-04-24 05:16 9.47716 -74.84783 15000 ft 205 kts 352°
2026-04-24 05:16 9.49146 -74.84797 15000 ft 205 kts 353°
2026-04-24 05:16 9.50598 -74.84789 15000 ft 205 kts 354°
2026-04-24 05:17 9.52009 -74.84780 15000 ft 205 kts 354°
2026-04-24 05:17 9.53441 -74.84776 15000 ft 205 kts 353°
2026-04-24 05:17 9.54857 -74.84777 15000 ft 205 kts 353°
2026-04-24 05:17 9.56295 -74.84782 15000 ft 205 kts 353°
2026-04-24 05:18 9.57721 -74.84789 15000 ft 205 kts 353°
2026-04-24 05:18 9.59138 -74.84798 15000 ft 205 kts 353°
2026-04-24 05:18 9.60566 -74.84808 15000 ft 205 kts 353°
2026-04-24 05:18 9.61994 -74.84819 15000 ft 205 kts 353°
2026-04-24 05:19 9.63445 -74.84831 15000 ft 205 kts 353°
2026-04-24 05:19 9.64855 -74.84842 15000 ft 205 kts 353°
2026-04-24 05:19 9.66284 -74.84854 15000 ft 205 kts 353°
2026-04-24 05:19 9.67708 -74.84867 15000 ft 205 kts 353°
2026-04-24 05:20 9.69135 -74.84879 15000 ft 205 kts 353°
2026-04-24 05:20 9.70573 -74.84891 15000 ft 205 kts 353°
2026-04-24 05:20 9.71983 -74.84904 15000 ft 205 kts 353°
2026-04-24 05:20 9.73413 -74.84916 15000 ft 205 kts 353°
2026-04-24 05:21 9.74843 -74.84929 14958 ft 207 kts 353°
2026-04-24 05:21 9.76301 -74.84943 14840 ft 211 kts 353°
2026-04-24 05:21 9.77776 -74.84955 14718 ft 214 kts 353°
2026-04-24 05:21 9.79286 -74.84965 14592 ft 216 kts 353°
2026-04-24 05:22 9.80776 -74.84975 14467 ft 217 kts 353°
2026-04-24 05:22 9.82292 -74.84984 14339 ft 217 kts 353°
2026-04-24 05:22 9.83810 -74.84995 14211 ft 217 kts 353°
2026-04-24 05:22 9.85301 -74.85005 14085 ft 217 kts 353°
2026-04-24 05:23 9.86819 -74.85017 13957 ft 217 kts 353°
2026-04-24 05:23 9.88337 -74.85029 13828 ft 217 kts 353°
2026-04-24 05:23 9.89844 -74.85041 13700 ft 216 kts 353°
2026-04-24 05:23 9.91345 -74.85054 13572 ft 216 kts 353°
2026-04-24 05:24 9.92843 -74.85067 13445 ft 216 kts 353°
2026-04-24 05:24 9.94350 -74.85080 13316 ft 216 kts 353°
2026-04-24 05:24 9.95844 -74.85094 13188 ft 215 kts 353°
2026-04-24 05:24 9.97348 -74.85107 13060 ft 215 kts 353°
2026-04-24 05:25 9.98856 -74.85121 12931 ft 215 kts 353°
2026-04-24 05:25 10.00340 -74.85135 12803 ft 215 kts 353°
2026-04-24 05:25 10.01847 -74.85148 12674 ft 214 kts 353°
2026-04-24 05:25 10.03332 -74.85162 12546 ft 214 kts 353°
2026-04-24 05:26 10.04801 -74.85175 12420 ft 214 kts 353°
2026-04-24 05:26 10.06280 -74.85189 12293 ft 214 kts 353°
2026-04-24 05:26 10.07796 -74.85203 12162 ft 213 kts 353°
2026-04-24 05:26 10.09263 -74.85217 12035 ft 213 kts 353°
2026-04-24 05:27 10.10739 -74.85230 11907 ft 213 kts 353°
2026-04-24 05:27 10.12217 -74.85244 11779 ft 212 kts 353°
2026-04-24 05:27 10.13690 -74.85258 11652 ft 212 kts 353°
2026-04-24 05:27 10.15178 -74.85272 11522 ft 212 kts 353°
2026-04-24 05:28 10.16636 -74.85285 11396 ft 212 kts 353°
2026-04-24 05:28 10.18108 -74.85299 11267 ft 211 kts 353°
2026-04-24 05:28 10.19579 -74.85313 11139 ft 211 kts 353°
2026-04-24 05:28 10.21045 -74.85327 11011 ft 211 kts 353°
2026-04-24 05:29 10.22516 -74.85341 10883 ft 210 kts 353°
2026-04-24 05:29 10.23985 -74.85354 10754 ft 210 kts 353°
2026-04-24 05:29 10.25439 -74.85368 10626 ft 210 kts 353°
2026-04-24 05:29 10.26898 -74.85382 10498 ft 210 kts 353°
2026-04-24 05:30 10.28317 -74.85396 10373 ft 209 kts 353°
2026-04-24 05:30 10.29777 -74.85410 10245 ft 209 kts 353°
2026-04-24 05:30 10.31236 -74.85424 10116 ft 209 kts 353°
2026-04-24 05:30 10.32691 -74.85438 9988 ft 208 kts 353°
2026-04-24 05:31 10.34134 -74.85453 9860 ft 208 kts 353°
2026-04-24 05:31 10.35571 -74.85467 9733 ft 208 kts 353°
2026-04-24 05:31 10.37019 -74.85481 9605 ft 208 kts 353°
2026-04-24 05:31 10.38459 -74.85496 9477 ft 207 kts 353°
2026-04-24 05:32 10.39907 -74.85511 9348 ft 207 kts 353°
2026-04-24 05:32 10.41353 -74.85526 9204 ft 207 kts 353°
2026-04-24 05:32 10.42797 -74.85541 9070 ft 207 kts 353°
2026-04-24 05:32 10.44213 -74.85555 9013 ft 203 kts 353°
2026-04-24 05:33 10.45626 -74.85570 8999 ft 199 kts 353°
2026-04-24 05:33 10.46988 -74.85586 8997 ft 196 kts 353°
2026-04-24 05:33 10.48347 -74.85605 8997 ft 194 kts 353°
2026-04-24 05:34 10.51046 -74.85643 8999 ft 193 kts 353°
2026-04-24 05:34 10.52381 -74.85663 8999 ft 192 kts 353°
2026-04-24 05:34 10.53721 -74.85683 9000 ft 192 kts 353°
2026-04-24 05:34 10.55059 -74.85704 9000 ft 192 kts 353°
2026-04-24 05:35 10.56378 -74.85727 9000 ft 192 kts 353°
2026-04-24 05:35 10.57717 -74.85756 9000 ft 191 kts 352°
2026-04-24 05:35 10.59013 -74.85942 9003 ft 186 kts 340°
2026-04-24 05:35 10.60228 -74.86361 9002 ft 184 kts 332°
2026-04-24 05:36 10.61392 -74.86898 9001 ft 183 kts 328°
2026-04-24 05:36 10.62521 -74.87489 9000 ft 182 kts 326°
2026-04-24 05:36 10.63627 -74.88103 9000 ft 182 kts 325°
2026-04-24 05:36 10.64732 -74.88733 9000 ft 182 kts 325°
2026-04-24 05:37 10.65832 -74.89370 9000 ft 182 kts 324°
2026-04-24 05:37 10.66929 -74.90007 8999 ft 182 kts 326°
2026-04-24 05:37 10.68130 -74.90496 9003 ft 186 kts 337°
2026-04-24 05:37 10.69386 -74.90809 9001 ft 188 kts 342°
2026-04-24 05:38 10.70686 -74.91043 9001 ft 189 kts 345°
2026-04-24 05:38 10.71969 -74.91218 8996 ft 192 kts 352°
2026-04-24 05:38 10.73292 -74.90886 9021 ft 199 kts 19°
2026-04-24 05:38 10.74496 -74.90152 9009 ft 204 kts 30°
2026-04-24 05:39 10.75628 -74.89262 9003 ft 206 kts 34°
2026-04-24 05:39 10.76723 -74.88327 9001 ft 206 kts 36°
2026-04-24 05:39 10.77812 -74.87389 9000 ft 206 kts 35°
2026-04-24 05:39 10.78902 -74.86447 9000 ft 206 kts 36°
2026-04-24 05:40 10.79988 -74.85502 9000 ft 206 kts 36°
2026-04-24 05:40 10.81089 -74.84551 9000 ft 206 kts 35°
2026-04-24 05:40 10.82184 -74.83615 9000 ft 206 kts 35°
2026-04-24 05:40 10.83286 -74.82682 9000 ft 206 kts 35°